Hourly Data Report for October 08, 2015

All times are specified in Local Standard Time (LST). Add 1 hour to adjust for Daylight Saving Time where and when it is observed.

RESOLUTE BAY A
NUNAVUT

74°43'01.000" N
94°58'10.000" W
67.70 m
2403498
71924
YRB

Download Data

Hourly Data (October 2015)
Hourly Data Report for October 8, 2015
Temp Definition
°C
Dew Point Temp Definition
°C
Rel Hum Definition
%
Wind Dir Definition
10's deg

Wind Spd Definition
km/h
Visibility Definition
km
Stn Press Definition
kPa
Hmdx Definition


Wind Chill Definition


Weather Definition


TIME
00:00 Legend Double Dagger -9.9 -12.0 85 8 31 24.1 99.26   -20 Mainly Clear
01:00 Legend Double Dagger -10.1 -13.1 79 8 28 24.1 99.30   -19 LegendNANA
02:00 Legend Double Dagger -10.0 -12.8 80 8 30 24.1 99.33   -20 LegendNANA
03:00 Legend Double Dagger -10.1 -13.2 78 8 28 24.1 99.39   -19 Clear
04:00 Legend Double Dagger -10.0 -12.8 80 8 26 24.1 99.44   -19 LegendNANA
05:00 Legend Double Dagger -9.0 -12.5 76 8 22 24.1 99.48   -17 LegendNANA
06:00 Legend Double Dagger -10.2 -12.6 83 7 23 24.1 99.56   -19 Mainly Clear
07:00 Legend Double Dagger -8.1 -11.1 79 9 22 24.1 99.59   -16 LegendNANA
08:00 Legend Double Dagger -8.2 -10.9 81 8 16 12.9 99.63   -15 LegendNANA
09:00 Legend Double Dagger -9.7 -11.9 84 7 14 12.9 99.67   -16 Mostly Cloudy
10:00 Legend Double Dagger -8.6 -11.6 79 8 18 12.9 99.69   -16 LegendNANA
11:00 Legend Double Dagger -9.2 -11.9 81 8 20 12.9 99.74   -17 LegendNANA
12:00 Legend Double Dagger -7.8 -11.5 75 6 16 16.1 99.77   -14 Cloudy
13:00 Legend Double Dagger -7.3 -11.2 74 8 12 16.1 99.80   -13 LegendNANA
14:00 Legend Double Dagger -7.2 -12.0 69 10 9 19.3 99.82   -12 LegendNANA
15:00 Legend Double Dagger -7.0 -11.4 71 6 9 16.1 99.84   -11 Cloudy
16:00 Legend Double Dagger -8.1 -11.8 75 4 14 19.3 99.87   -14 LegendNANA
17:00 Legend Double Dagger -8.4 -11.9 76 4 19 16.1 99.91   -16 LegendNANA
18:00 Legend Double Dagger -8.5 -12.0 76 4 18 16.1 99.92   -16 Cloudy
19:00 Legend Double Dagger -9.4 -12.6 78 3 19 16.1 99.91   -17 LegendNANA
20:00 Legend Double Dagger -9.3 -12.5 78 4 21 24.1 99.93   -17 LegendNANA
21:00 Legend Double Dagger -10.2 -13.2 79 4 23 24.1 99.91   -19 Mostly Cloudy
22:00 Legend Double Dagger -10.7 -12.5 87 4 24 24.1 99.91   -19 LegendNANA
23:00 Legend Double Dagger -11.5 -13.0 89 4 24 24.1 99.91   -21 LegendNANA

Notes on Data Quality.

Legend

  • E = Estimated
  • M = Missing
  • NA = Not Available
  • ‡ = Partner data that is not subject to review by the National Climate Archives
Date modified: